"2010-02-06 00:00:00",1656279,5.245,149.3,5.643,1.051,7.572,101.4414,2.977,4.294,33.78,0,109.8,13.48,3.74,111.3
"2010-02-06 00:00:30",1656280,4.245,140.1,5.757,1.092,4.72,101.4247,2.935,4.178,33.81,0,109.8,13.48,3.70,102.1
"2010-02-06 00:01:00",1656281,4.37,132.9,4.156,1.113,4.595,101.4247,2.935,4.197,35.54,0,109.8,13.48,3.70,94.9
"2010-02-06 00:01:30",1656282,5.067,137.7,7.026,1.298,5.938,101.4219,2.927,4.173,36.94,0,109.8,13.48,3.69,99.7
"2010-02-06 00:02:00",1656283,5.703,136.5,5.561,1.177,7.295,101.3933,2.854,4.273,37.52,0,109.8,13.48,3.62,98.5
"2010-02-06 00:02:30",1656284,6.07,136.4,3.43,0.744,8.05,101.3908,2.848,4.291,37.98,0,109.8,13.48,3.61,98.4
"2010-02-06 00:03:00",1656285,5.53,138.7,6.394,1.146,7.107,101.3783,2.816,4.155,37.89,0,109.8,13.48,3.58,100.7
"2010-02-06 00:03:30",1656286,5.609,141.3,6.208,1.222,6.369,101.3568,2.761,4.134,37.37,0,109.8,13.48,3.52,103.3
"2010-02-06 00:04:00",1656287,4.442,134,1.814,0.453,3.648,101.3566,2.761,3.891,36.58,0,109.8,13.48,3.52,96.0
"2010-02-06 00:04:30",1656288,5.866,142.2,7.179,1.236,6.542,101.3368,2.71,4.069,37.01,0,109.8,13.49,3.47,104.2
"2010-02-06 00:05:00",1656289,6.657,147.1,5.03,1.064,7.952,101.3232,2.676,4.132,37.2,0,109.8,13.49,3.44,109.1
"2010-02-06 00:05:30",1656290,6.847,149.9,4.159,0.788,8.17,101.3224,2.673,4.092,37.31,0,109.8,13.49,3.43,111.9
"2010-02-06 00:06:00",1656291,6.422,152.6,4.301,0.779,8.33,101.2992,2.614,4.09,37.27,0,109.8,13.49,3.38,114.6
"2010-02-06 00:06:30",1656292,5.292,143.9,5.859,1.279,5.585,101.289,2.588,3.89,37.09,0,109.8,13.49,3.35,105.9
"2010-02-06 00:07:00",1656293,4.234,141,5.144,0.648,4.748,101.289,2.588,3.92,37.18,0,109.8,13.49,3.35,103.0
"2010-02-06 00:07:30",1656294,5.279,145.9,5.515,1.24,5.453,101.285,2.578,3.747,37.01,0,109.8,13.49,3.34,107.9
"2010-02-06 00:08:00",1656295,5.536,150.7,5.701,1.131,7.4,101.2576,2.508,3.932,37.06,0,109.8,13.5,3.27,112.7
"2010-02-06 00:08:30",1656296,5.726,150,5.755,1.173,7.495,101.2551,2.502,3.93,37.3,0,109.8,13.5,3.26,112.0
"2010-02-06 00:09:00",1656297,6.08,151.3,4.507,0.947,7.726,101.2554,2.502,3.906,37.6,0,109.8,13.5,3.26,113.3
"2010-02-06 00:09:30",1656298,6.165,149.8,5.854,1.007,7.319,101.252,2.494,3.825,37.55,0,109.8,13.5,3.25,111.8
"2010-02-06 00:10:00",1656299,4.875,144.6,5.794,1.053,4.729,101.2311,2.44,3.722,37.43,0,109.8,13.5,3.20,106.6
"2010-02-06 00:10:30",1656300,5.42,145.3,6.013,1.255,5.681,101.2266,2.429,3.709,37.47,0,109.8,13.5,3.19,107.3
"2010-02-06 00:11:00",1656301,5.1,145.8,6.391,1.147,5.28,101.2269,2.43,3.72,37.51,0,109.8,13.49,3.19,107.8
"2010-02-06 00:11:30",1656302,5.977,153.2,5.104,1.05,7.491,101.2312,2.441,3.769,37.59,0,109.8,13.49,3.20,115.2
"2010-02-06 00:12:00",1656303,6.171,154.2,4.8,0.95,8.04,101.2343,2.449,3.827,37.53,0,109.8,13.49,3.21,116.2
"2010-02-06 00:12:30",1656304,6.187,155.2,5.726,0.988,7.493,101.2293,2.436,3.749,37.31,0,109.8,13.49,3.20,117.2
"2010-02-06 00:13:00",1656305,5.541,154.6,6.355,1.211,6.817,101.2138,2.396,3.765,37.21,0,109.8,13.49,3.16,116.6
"2010-02-06 00:13:30",1656306,4.581,151.4,5.889,1.192,4.637,101.2104,2.388,3.513,36.96,0,109.8,13.49,3.15,113.4
"2010-02-06 00:14:00",1656307,4.792,153.8,5.683,1.277,5.274,101.2127,2.394,3.57,36.96,0,109.7,13.5,3.15,115.8
"2010-02-06 00:14:30",1656308,4.971,153.8,6.371,1.204,6.272,101.2133,2.395,3.658,37.04,0,109.7,13.5,3.16,115.8
"2010-02-06 00:15:00",1656309,5.843,157.8,4.6,0.953,7.857,101.215,2.399,3.726,37.04,0,109.7,13.5,3.16,119.8
"2010-02-06 00:15:30",1656310,5.564,155.8,5.296,1.062,7.459,101.2159,2.402,3.697,37,0,109.7,13.5,3.16,117.8
"2010-02-06 00:16:00",1656311,4.589,151,6.001,1.209,5.391,101.2139,2.397,3.547,36.89,0,109.7,13.5,3.16,113.0
"2010-02-06 00:16:30",1656312,4.797,149.7,5.999,1.264,5.473,101.2066,2.378,3.58,36.94,0,109.7,13.5,3.14,111.7
"2010-02-06 00:17:00",1656313,4.712,147.8,5.453,1.158,5.248,101.1967,2.353,3.505,36.86,0,109.7,13.51,3.11,109.8
"2010-02-06 00:17:30",1656314,5.001,151.3,6.604,1.287,6.435,101.1882,2.331,3.627,36.99,0,109.7,13.51,3.09,113.3
"2010-02-06 00:18:00",1656315,5.793,154.1,5.33,0.96,7.7,101.1876,2.33,3.71,37.11,0,109.7,13.51,3.09,116.1
"2010-02-06 00:18:30",1656316,5.335,154,5.898,1.201,6.938,101.1876,2.33,3.626,37.02,0,109.7,13.51,3.09,116.0
"2010-02-06 00:19:00",1656317,5.56,152.7,6.202,1.07,6.853,101.1876,2.33,3.538,36.92,0,109.7,13.51,3.09,114.7
"2010-02-06 00:19:30",1656318,4.372,147.8,5.717,0.958,4.808,101.1876,2.33,3.54,36.96,0,109.7,13.51,3.09,109.8
"2010-02-06 00:20:00",1656319,5.025,151.5,6.659,1.21,5.268,101.1876,2.33,3.507,37.02,0,109.7,13.51,3.09,113.5
"2010-02-06 00:20:30",1656320,5.119,152.9,6.128,1.216,5.482,101.1876,2.33,3.506,37.11,0,109.7,13.51,3.09,114.9
"2010-02-06 00:21:00",1656321,5.781,158.2,5.496,1.156,7.198,101.1876,2.33,3.621,37.26,0,109.7,13.51,3.09,120.2
"2010-02-06 00:21:30",1656322,6.195,161.3,3.321,0.776,8.5,101.1876,2.33,3.633,37.39,0,109.7,13.51,3.09,123.3
"2010-02-06 00:22:00",1656323,4.972,151.6,6.97,1.241,5.767,101.1857,2.325,3.545,37.32,0,109.7,13.51,3.08,113.6
"2010-02-06 00:22:30",1656324,4.2,146.9,4.949,0.951,4.642,101.1831,2.318,3.575,37.35,0,109.7,13.51,3.08,108.9
"2010-02-06 00:23:00",1656325,4.894,147.9,6.116,1.151,5.074,101.1715,2.288,3.399,37.2,0,109.7,13.51,3.05,109.9
"2010-02-06 00:23:30",1656326,5.155,150.1,6.336,1.244,6.369,101.1664,2.275,3.613,37.47,0,109.7,13.51,3.04,112.1
"2010-02-06 00:24:00",1656327,5.448,150.6,6.548,1.161,7.205,101.1585,2.255,3.594,37.51,0,109.7,13.52,3.02,112.6
"2010-02-06 00:24:30",1656328,6.155,153.3,4.18,0.51,8.07,101.156,2.249,3.592,37.54,0,109.7,13.51,3.01,115.3
"2010-02-06 00:25:00",1656329,4.815,145.3,6.117,1.241,6.09,101.1546,2.245,3.568,37.46,0,109.7,13.52,3.01,107.3
"2010-02-06 00:25:30",1656330,5.348,146.2,5.89,1.189,6.401,101.1549,2.246,3.559,37.44,0,109.7,13.52,3.01,108.2
"2010-02-06 00:26:00",1656331,4.175,140.3,4.678,0.853,4.685,101.1577,2.253,3.457,37.29,0,109.7,13.52,3.01,102.3
"2010-02-06 00:26:30",1656332,4.938,143.4,6.099,1.155,5.692,101.158,2.254,3.488,37.29,0,109.7,13.52,3.01,105.4
"2010-02-06 00:27:00",1656333,5.909,148.5,4.787,1.07,7.72,101.1606,2.261,3.586,37.5,0,109.7,13.51,3.02,110.5
"2010-02-06 00:27:30",1656334,5.981,148.8,5.807,1.057,7.984,101.1666,2.276,3.615,37.73,0,109.7,13.51,3.04,110.8
"2010-02-06 00:28:00",1656335,5.696,148.7,5.763,1.153,7.039,101.168,2.28,3.574,37.82,0,109.7,13.51,3.04,110.7
"2010-02-06 00:28:30",1656336,4.516,144.6,5.179,0.986,4.899,101.1717,2.289,3.482,37.79,0,109.7,13.51,3.05,106.6
"2010-02-06 00:29:00",1656337,5.58,149.1,6.437,1.176,6.088,101.1763,2.301,3.435,37.79,0,109.7,13.51,3.06,111.1
"2010-02-06 00:29:30",1656338,5.605,150,6.398,1.176,6.722,101.1797,2.309,3.467,37.93,0,109.7,13.51,3.07,112.0
"2010-02-06 00:30:00",1656339,5.396,150.1,6.442,1.24,6.421,101.1797,2.309,3.482,37.97,0,109.7,13.51,3.07,112.1
"2010-02-06 00:30:30",1656340,5.79,152.1,5.926,1.105,7.464,101.1812,2.313,3.516,37.97,0,109.7,13.51,3.07,114.1
"2010-02-06 00:31:00",1656341,5.896,151.6,5.358,0.987,7.872,101.1818,2.315,3.603,38.01,0,109.7,13.51,3.07,113.6
"2010-02-06 00:31:30",1656342,5.401,149.6,6.122,1.199,6.064,101.1849,2.323,3.401,37.83,0,109.7,13.51,3.08,111.6
"2010-02-06 00:32:00",1656343,5.234,149.6,6.496,1.203,6.228,101.1795,2.309,3.448,37.86,0,109.7,13.52,3.07,111.6
"2010-02-06 00:32:30",1656344,4.187,144.8,4.248,0.738,4.345,101.1716,2.289,3.412,37.85,0,109.7,13.52,3.05,106.8
"2010-02-06 00:33:00",1656345,6.105,154.2,5.063,0.793,7.621,101.1646,2.271,3.509,37.93,0,109.7,13.53,3.03,116.2
"2010-02-06 00:33:30",1656346,5.682,152.8,5.637,1.201,7.241,101.1564,2.25,3.468,37.96,0,109.7,13.53,3.01,114.8
"2010-02-06 00:34:00",1656347,5.819,153.1,5.514,1.142,7.412,101.1555,2.248,3.532,38.04,0,109.7,13.53,3.01,115.1
"2010-02-06 00:34:30",1656348,5.594,151.3,5.716,1.173,6.676,101.1541,2.244,3.515,38.02,0,109.7,13.53,3.00,113.3
"2010-02-06 00:35:00",1656349,5.94,152.8,5.173,1.039,6.901,101.1541,2.244,3.454,37.95,0,109.7,13.53,3.00,114.8
"2010-02-06 00:35:30",1656350,4.455,144.3,4.207,0.957,4.518,101.1541,2.244,3.396,37.9,0,109.7,13.53,3.00,106.3
"2010-02-06 00:36:00",1656351,5.104,147.5,5.818,1.214,5.381,101.1541,2.244,3.389,37.92,0,109.7,13.53,3.00,109.5
"2010-02-06 00:36:30",1656352,5.693,152.4,5.786,1.162,7.414,101.1541,2.244,3.495,38.02,0,109.7,13.53,3.00,114.4
"2010-02-06 00:37:00",1656353,5.621,152.4,5.755,1.11,7.268,101.1541,2.244,3.503,38.02,0,109.7,13.53,3.00,114.4
"2010-02-06 00:37:30",1656354,5.395,150.6,6.415,1.246,6.567,101.1541,2.244,3.478,38.04,0,109.7,13.53,3.00,112.6
"2010-02-06 00:38:00",1656355,5.118,147.9,6.209,1.224,5.482,101.1541,2.244,3.374,37.9,0,109.7,13.53,3.00,109.9
"2010-02-06 00:38:30",1656356,5.178,148.3,6.202,1.25,5.975,101.1541,2.244,3.506,38.04,0,109.7,13.53,3.00,110.3
"2010-02-06 00:39:00",1656357,5.074,146.3,6.005,1.238,5.12,101.1541,2.244,3.338,37.9,0,109.7,13.53,3.00,108.3
"2010-02-06 00:39:30",1656358,5.683,151.4,5.385,1.155,7.329,101.1541,2.244,3.504,38.1,0,109.7,13.53,3.00,113.4
"2010-02-06 00:40:00",1656359,5.793,149.8,5.875,1.157,7.099,101.1541,2.244,3.511,38.15,0,109.7,13.53,3.00,111.8
"2010-02-06 00:40:30",1656360,6.075,151.1,5.823,0.999,7.32,101.1541,2.244,3.483,38.19,0,109.7,13.53,3.00,113.1
"2010-02-06 00:41:00",1656361,4.649,146.3,5.133,1.004,5.246,101.1541,2.244,3.439,38.14,0,109.7,13.53,3.00,108.3
"2010-02-06 00:41:30",1656362,5.587,152.5,6.221,1.167,7.094,101.1541,2.244,3.512,38.22,0,109.7,13.53,3.00,114.5
"2010-02-06 00:42:00",1656363,4.997,150.3,6.592,1.2,5.245,101.1541,2.244,3.296,38.02,0,109.7,13.53,3.00,112.3
"2010-02-06 00:42:30",1656364,5.353,150.3,6.725,1.221,6.108,101.1541,2.244,3.424,38.17,0,109.7,13.53,3.00,112.3
"2010-02-06 00:43:00",1656365,5.601,153.4,6.123,1.196,7.017,101.1541,2.244,3.508,38.29,0,109.7,13.53,3.00,115.4
"2010-02-06 00:43:30",1656366,6.257,157.8,3.987,0.782,8.13,101.1541,2.244,3.54,38.38,0,109.7,13.53,3.00,119.8
"2010-02-06 00:44:00",1656367,5.508,154.6,5.987,1.208,6.488,101.1541,2.244,3.397,38.32,0,109.7,13.53,3.00,116.6
"2010-02-06 00:44:30",1656368,5.244,153.8,6.484,1.236,5.852,101.1541,2.244,3.462,38.47,0,109.7,13.53,3.00,115.8
"2010-02-06 00:45:00",1656369,5.281,152.9,5.756,1.257,5.939,101.1541,2.244,3.383,38.43,0,109.7,13.53,3.00,114.9
"2010-02-06 00:45:30",1656370,5.708,153.1,6.125,1.109,6.733,101.1541,2.244,3.441,38.54,0,109.7,13.53,3.00,115.1
"2010-02-06 00:46:00",1656371,5.455,150.9,6.296,1.177,6.373,101.1541,2.244,3.501,38.7,0,109.7,13.53,3.00,112.9
"2010-02-06 00:46:30",1656372,6.103,152.6,5.713,1.049,7.475,101.1541,2.244,3.528,38.95,0,109.7,13.53,3.00,114.6
"2010-02-06 00:47:00",1656373,5.644,150.9,6.331,1.206,6.354,101.1541,2.244,3.5,39.15,0,109.7,13.53,3.00,112.9
"2010-02-06 00:47:30",1656374,5.586,150.2,6.166,1.204,6.458,101.1544,2.245,3.51,39.04,0,109.7,13.53,3.00,112.2
"2010-02-06 00:48:00",1656375,5.395,148.2,5.724,1.154,5.204,101.1544,2.245,3.327,38.66,0,109.7,13.53,3.00,110.2
"2010-02-06 00:48:30",1656376,5.625,150.5,6.588,1.223,6.149,101.155,2.246,3.533,39.04,0,109.7,13.54,3.01,112.5
"2010-02-06 00:49:00",1656377,6.496,154.5,4.758,0.941,7.434,101.1561,2.249,3.519,39.09,0,109.7,13.54,3.01,116.5
"2010-02-06 00:49:30",1656378,6.099,152.9,6.152,1.153,7.003,101.1572,2.252,3.538,39.15,0,109.7,13.54,3.01,114.9
"2010-02-06 00:50:00",1656379,6.34,154.5,5.179,1.106,7.234,101.159,2.256,3.512,39.12,0,109.7,13.54,3.02,116.5
"2010-02-06 00:50:30",1656380,5.368,148.6,6.176,1.133,5.407,101.1621,2.264,3.439,39.02,0,109.7,13.54,3.02,110.6
"2010-02-06 00:51:00",1656381,5.556,148.7,6.287,1.202,5.28,101.1613,2.262,3.335,38.82,0,109.7,13.54,3.02,110.7
"2010-02-06 00:51:30",1656382,5.785,150.3,6.241,1.24,6.138,101.1553,2.247,3.505,38.97,0,109.7,13.54,3.01,112.3
"2010-02-06 00:52:00",1656383,5.933,150.9,6.249,1.195,6.567,101.1511,2.236,3.445,38.95,0,109.7,13.54,3.00,112.9
"2010-02-06 00:52:30",1656384,6.662,155.1,4.294,0.955,7.863,101.148,2.228,3.541,38.98,0,109.7,13.54,2.99,117.1
"2010-02-06 00:53:00",1656385,6.095,152.9,5.89,1.194,7.182,101.1488,2.231,3.487,38.96,0,109.7,13.54,2.99,114.9
"2010-02-06 00:53:30",1656386,6.237,152.7,5.584,1.136,6.572,101.1415,2.212,3.445,38.86,0,109.7,13.54,2.97,114.7
"2010-02-06 00:54:00",1656387,5.275,148.3,5.556,1.109,5.443,101.1381,2.203,3.392,38.79,0,109.7,13.54,2.96,110.3
"2010-02-06 00:54:30",1656388,4.987,148,5.799,1.059,5.102,101.1353,2.196,3.451,38.99,0,109.7,13.54,2.96,110.0
"2010-02-06 00:55:00",1656389,5.669,151.2,6.382,1.203,6.171,101.1365,2.199,3.384,38.92,0,109.7,13.54,2.96,113.2
"2010-02-06 00:55:30",1656390,6.083,155,4.817,1.06,7.861,101.1367,2.2,3.494,39,0,109.7,13.54,2.96,117.0
"2010-02-06 00:56:00",1656391,6.062,155.4,5.228,1.066,7.217,101.1393,2.206,3.476,38.98,0,109.7,13.54,2.97,117.4
"2010-02-06 00:56:30",1656392,5.657,150.4,6.197,1.195,6.331,101.1416,2.212,3.484,38.99,0,109.7,13.54,2.97,112.4
"2010-02-06 00:57:00",1656393,5.232,148.8,6.148,1.182,5.392,101.1419,2.213,3.359,38.84,0,109.7,13.54,2.97,110.8
"2010-02-06 00:57:30",1656394,4.293,144.6,2.603,0.443,3.92,101.1416,2.212,3.366,38.92,0,109.7,13.58,2.97,106.6
"2010-02-06 00:58:00",1656395,5.908,153.5,5.625,1.076,6.813,101.1436,2.217,3.389,38.94,0,109.7,13.54,2.98,115.5
"2010-02-06 00:58:30",1656396,6.143,155.4,5.438,0.999,7.81,101.1436,2.217,3.531,39.09,0,109.7,13.54,2.98,117.4
"2010-02-06 00:59:00",1656397,6.208,156.4,5.227,0.871,7.843,101.1465,2.225,3.531,39.16,0,109.7,13.54,2.98,118.4
"2010-02-06 00:59:30",1656398,6.38,158.2,3.641,0.563,7.983,101.1468,2.225,3.536,39.22,0,109.7,13.54,2.99,120.2
"2010-02-06 01:00:00",1656399,5.031,151,6.169,1.178,4.867,101.1456,2.222,3.279,39.01,0,109.7,13.54,2.98,113.0
"2010-02-06 01:00:30",1656400,4.83,151.1,6.016,1.064,5.022,101.1473,2.227,3.343,39.07,0,109.7,13.54,2.99,113.1
"2010-02-06 01:01:00",1656401,5.081,152,6.089,1.198,5.856,101.1473,2.227,3.411,39.13,0,109.7,13.54,2.99,114.0
"2010-02-06 01:01:30",1656402,5.681,154.9,5.71,1.197,7.459,101.1479,2.228,3.44,39.08,0,109.7,13.54,2.99,116.9
"2010-02-06 01:02:00",1656403,6.005,155.9,4.048,0.947,8.26,101.1471,2.226,3.494,39.11,0,109.7,13.54,2.99,117.9
"2010-02-06 01:02:30",1656404,6.092,155.7,2.755,0.684,8.01,101.1465,2.225,3.516,39.07,0,109.7,13.54,2.98,117.7
"2010-02-06 01:03:00",1656405,4.967,148.7,5.99,1.216,4.954,101.1485,2.23,3.266,38.81,0,109.7,13.54,2.99,110.7
"2010-02-06 01:03:30",1656406,4.783,148.4,5.727,1.156,4.884,101.1459,2.223,3.321,38.8,0,109.7,13.54,2.98,110.4
"2010-02-06 01:04:00",1656407,3.919,142.9,0.359,0.031,3.287,101.148,2.228,3.199,38.59,0,109.7,13.57,2.99,104.9
"2010-02-06 01:04:30",1656408,5.724,152,5.79,1.157,7.641,101.1414,2.212,3.479,38.7,0,109.7,13.54,2.97,114.0
"2010-02-06 01:05:00",1656409,6.131,153.4,5.276,0.869,8.49,101.1329,2.19,3.49,38.66,0,109.7,13.55,2.95,115.4
"2010-02-06 01:05:30",1656410,6.189,155.1,4.014,0.672,8.26,101.1253,2.171,3.51,38.67,0,109.7,13.55,2.93,117.1
"2010-02-06 01:06:00",1656411,5.974,154.5,3.529,0.866,7.778,101.1205,2.158,3.512,38.54,0,109.7,13.55,2.92,116.5
"2010-02-06 01:06:30",1656412,4.82,146.3,6.082,1.087,4.313,101.1188,2.154,3.238,38.21,0,109.7,13.55,2.91,108.3
"2010-02-06 01:07:00",1656413,4.041,140.5,0.616,0.033,3.119,101.1197,2.156,3.224,38.34,0,109.7,13.58,2.92,102.5
"2010-02-06 01:07:30",1656414,5.098,147.2,6.417,1.25,5.396,101.1203,2.158,3.398,38.63,0,109.7,13.55,2.92,109.2
"2010-02-06 01:08:00",1656415,6.613,153.1,4.115,0.546,8.67,101.1205,2.158,3.49,38.59,0,109.6,13.55,2.92,115.1
"2010-02-06 01:08:30",1656416,6.418,152.7,2.631,0.769,8.41,101.1205,2.158,3.506,38.72,0,109.7,13.55,2.92,114.7
"2010-02-06 01:09:00",1656417,6.153,150.6,5.874,1.071,7.61,101.1197,2.156,3.425,38.38,0,109.7,13.55,2.92,112.6
"2010-02-06 01:09:30",1656418,5.572,147.8,6.3,1.21,6.337,101.1203,2.158,3.405,38.22,0,109.6,13.55,2.92,109.8
"2010-02-06 01:10:00",1656419,4.43,142.2,4.008,0.615,3.965,101.1205,2.158,3.268,38.07,0,109.6,13.55,2.92,104.2
"2010-02-06 01:10:30",1656420,6.065,150.1,6.154,1.202,6.884,101.12,2.157,3.392,38.07,0,109.7,13.55,2.92,112.1
"2010-02-06 01:11:00",1656421,6.226,150.9,5.612,1.1,7.45,101.1205,2.158,3.412,37.97,0,109.7,13.55,2.92,112.9
"2010-02-06 01:11:30",1656422,6.727,154,3.951,0.564,8.47,101.1203,2.158,3.441,37.89,0,109.6,13.56,2.92,116.0
"2010-02-06 01:12:00",1656423,5.862,149.7,6.113,1.192,6.27,101.1205,2.158,3.378,37.76,0,109.7,13.56,2.92,111.7
"2010-02-06 01:12:30",1656424,6.08,151.1,6,1.14,6.945,101.1205,2.158,3.365,37.72,0,109.7,13.56,2.92,113.1
"2010-02-06 01:13:00",1656425,5.816,147.7,6.664,1.232,5.327,101.1157,2.146,3.26,37.62,0,109.6,13.55,2.91,109.7
"2010-02-06 01:13:30",1656426,5.966,150.6,6.207,1.172,6.58,101.1106,2.133,3.388,37.78,0,109.6,13.55,2.89,112.6
"2010-02-06 01:14:00",1656427,6.354,150.1,6.566,1.1,7.251,101.1081,2.127,3.361,37.79,0,109.6,13.56,2.89,112.1
"2010-02-06 01:14:30",1656428,6.106,149.6,6.302,1.167,6.62,101.1044,2.117,3.344,37.79,0,109.7,13.56,2.88,111.6
"2010-02-06 01:15:00",1656429,5.85,149.1,6.287,1.196,6.608,101.1019,2.111,3.397,37.75,0,109.7,13.56,2.87,111.1
"2010-02-06 01:15:30",1656430,5.556,146.4,6.299,1.205,6.233,101.1002,2.106,3.355,37.69,0,109.6,13.55,2.87,108.4
"2010-02-06 01:16:00",1656431,6.33,151.1,5.101,1.097,7.115,101.1013,2.109,3.385,37.68,0,109.6,13.55,2.87,113.1
"2010-02-06 01:16:30",1656432,6.457,151.5,6.05,1.053,7.144,101.0976,2.1,3.348,37.65,0,109.6,13.55,2.86,113.5
"2010-02-06 01:17:00",1656433,5.672,148.8,6.303,1.227,5.556,101.0956,2.095,3.336,37.66,0,109.6,13.54,2.85,110.8
"2010-02-06 01:17:30",1656434,6.506,152.2,5.328,1.04,6.835,101.0897,2.08,3.305,37.58,0,109.6,13.55,2.84,114.2
"2010-02-06 01:18:00",1656435,6.413,150.3,6.169,1.114,6.773,101.0891,2.078,3.345,37.65,0,109.6,13.54,2.84,112.3
"2010-02-06 01:18:30",1656436,6.709,150.9,5.003,0.997,7.569,101.0877,2.075,3.355,37.69,0,109.6,13.55,2.83,112.9
"2010-02-06 01:19:00",1656437,7.054,153,3.848,0.653,7.736,101.0869,2.072,3.362,37.31,0,109.6,13.55,2.83,115.0
"2010-02-06 01:19:30",1656438,6.008,150.6,6.392,1.196,6.192,101.0866,2.072,3.344,36.98,0,109.6,13.55,2.83,112.6
"2010-02-06 01:20:00",1656439,6.112,149.4,6.372,1.153,5.918,101.0866,2.072,3.217,36.77,0,109.6,13.55,2.83,111.4
"2010-02-06 01:20:30",1656440,5.68,147.6,6.324,1.194,5.641,101.0866,2.072,3.261,36.67,0,109.6,13.55,2.83,109.6
"2010-02-06 01:21:00",1656441,5.797,149.1,6.437,1.208,6.538,101.0866,2.072,3.325,36.55,0,109.6,13.55,2.83,111.1
"2010-02-06 01:21:30",1656442,6.358,152.4,4.925,0.927,7.67,101.0866,2.072,3.327,36.59,0,109.6,13.56,2.83,114.4
"2010-02-06 01:22:00",1656443,6,149.7,5.973,0.988,7.273,101.0866,2.072,3.385,36.63,0,109.6,13.56,2.83,111.7
"2010-02-06 01:22:30",1656444,5.308,146,6.516,1.196,5.74,101.0866,2.072,3.273,36.52,0,109.6,13.56,2.83,108.0
"2010-02-06 01:23:00",1656445,4.786,142.6,6.153,1.147,4.838,101.0866,2.072,3.128,36.39,0,109.6,13.56,2.83,104.6
"2010-02-06 01:23:30",1656446,5.243,145.1,6.129,1.197,6.285,101.0866,2.072,3.305,36.51,0,109.6,13.56,2.83,107.1
"2010-02-06 01:24:00",1656447,5.099,143.6,6.355,1.237,5.848,101.0866,2.072,3.18,36.39,0,109.6,13.56,2.83,105.6
"2010-02-06 01:24:30",1656448,5.817,149.5,4.178,1,7.706,101.0866,2.072,3.393,36.6,0,109.6,13.56,2.83,111.5
"2010-02-06 01:25:00",1656449,5.541,146.6,5.589,1.134,6.867,101.086,2.07,3.333,36.42,0,109.7,13.56,2.83,108.6
"2010-02-06 01:25:30",1656450,5.642,145.7,6.225,1.224,6.4,101.0835,2.064,3.306,36.58,0,109.6,13.56,2.82,107.7
"2010-02-06 01:26:00",1656451,4.945,144.2,4.828,1.182,5.126,101.0789,2.052,3.119,36.47,0,109.6,13.56,2.81,106.2
"2010-02-06 01:26:30",1656452,5.744,150.9,8.17,1.221,7.056,101.071,2.032,3.26,36.67,0,109.6,13.56,2.79,112.9
"2010-02-06 01:27:00",1656453,5.592,152.2,6.931,1.219,6.447,101.0603,2.005,3.212,36.85,0,109.6,13.56,2.76,114.2
"2010-02-06 01:27:30",1656454,6.244,153.2,4.368,0.631,8.33,101.0557,1.993,3.364,36.85,0,109.6,13.56,2.75,115.2
"2010-02-06 01:28:00",1656455,5.81,154.3,3.625,0.886,7.88,101.0532,1.987,3.302,36.7,0,109.6,13.56,2.75,116.3
"2010-02-06 01:28:30",1656456,5.412,150.2,5.805,1.185,5.706,101.0526,1.985,3.265,36.94,0,109.6,13.56,2.74,112.2
"2010-02-06 01:29:00",1656457,4.911,151,6.688,1.182,5.095,101.0526,1.985,3.137,37.01,0,109.6,13.56,2.74,113.0
"2010-02-06 01:29:30",1656458,4.958,150.2,6.36,1.139,4.621,101.0526,1.985,3.154,36.99,0,109.6,13.56,2.74,112.2
"2010-02-06 01:30:00",1656459,5.846,156,5.678,1.176,6.995,101.0526,1.985,3.249,37.12,0,109.6,13.56,2.74,118.0
"2010-02-06 01:30:30",1656460,6.337,160,4.115,0.579,8.25,101.0526,1.985,3.335,37.18,0,109.5,13.56,2.74,122.0
"2010-02-06 01:31:00",1656461,6.152,157.7,4.233,0.655,8,101.0526,1.985,3.309,37.12,0,109.6,13.56,2.74,119.7
"2010-02-06 01:31:30",1656462,5.92,156.5,5.337,1.02,7.014,101.0526,1.985,3.228,37.33,0,109.6,13.56,2.74,118.5
"2010-02-06 01:32:00",1656463,4.545,152,4.139,0.881,4.045,101.0529,1.986,3.157,37.51,0,109.6,13.56,2.74,114.0
"2010-02-06 01:32:30",1656464,5.098,154,5.588,1.252,4.589,101.0529,1.986,3.098,37.83,0,109.6,13.56,2.74,116.0
"2010-02-06 01:33:00",1656465,6.277,159,5.424,1,7.228,101.0529,1.986,3.247,38.57,0,109.6,13.56,2.74,121.0
"2010-02-06 01:33:30",1656466,6.587,158.9,5.366,1.053,7.295,101.0526,1.985,3.288,38.98,0,109.6,13.56,2.74,120.9
"2010-02-06 01:34:00",1656467,7.532,165.5,3.816,0.754,7.477,101.0529,1.986,3.326,39.37,0,109.6,13.56,2.74,127.5
"2010-02-06 01:34:30",1656468,7.787,164.8,4.25,0.808,7.509,101.0524,1.984,3.334,39.65,0,109.6,13.56,2.74,126.8
"2010-02-06 01:35:00",1656469,6.315,159.9,7.158,1.335,5.648,101.045,1.966,3.2,39.47,0,109.6,13.56,2.72,121.9
"2010-02-06 01:35:30",1656470,5.381,156.5,6.555,1.136,4.689,101.0243,1.913,3.167,39.27,0,109.6,13.56,2.67,118.5
"2010-02-06 01:36:00",1656471,5.171,157,5.254,0.993,4.046,101.0195,1.901,3.063,39.16,0,109.6,13.56,2.66,119.0
"2010-02-06 01:36:30",1656472,6.226,161.3,7.352,1.158,6.333,101.0198,1.901,3.244,39.41,0,109.6,13.56,2.66,123.3
"2010-02-06 01:37:00",1656473,7.005,166.2,3.637,0.706,8.17,101.0198,1.901,3.285,39.47,0,109.6,13.56,2.66,128.2
"2010-02-06 01:37:30",1656474,6.951,163.9,4.31,0.551,8.09,101.0212,1.905,3.269,39.48,0,109.6,13.57,2.66,125.9
"2010-02-06 01:38:00",1656475,6.709,162,5.672,1.107,6.161,101.0192,1.9,3.106,39.34,0,109.6,13.57,2.66,124.0
"2010-02-06 01:38:30",1656476,6.144,160.7,6.76,1.147,5.086,101.0201,1.902,3.111,39.44,0,109.6,13.56,2.66,122.7
"2010-02-06 01:39:00",1656477,5.789,159.9,4.887,0.813,3.711,101.0215,1.906,3.043,39.48,0,109.6,13.57,2.66,121.9
"2010-02-06 01:39:30",1656478,6.937,167.6,7.043,1.271,5.729,101.0082,1.872,3.182,39.88,0,109.6,13.57,2.63,129.6
"2010-02-06 01:40:00",1656479,8.02,174.8,3.391,0.638,7.906,100.9915,1.829,3.239,40.21,0,109.6,13.57,2.59,136.8
"2010-02-06 01:40:30",1656480,7.759,174.8,3.928,0.776,7.849,100.987,1.818,3.234,40.19,0,109.6,13.57,2.58,136.8
"2010-02-06 01:41:00",1656481,7.369,172.7,5.526,1.031,7.225,100.9913,1.829,3.221,40.2,0,109.6,13.57,2.59,134.7
"2010-02-06 01:41:30",1656482,6.059,167,5.649,1.168,4.371,100.9904,1.826,2.988,39.88,0,109.6,13.57,2.58,129.0
"2010-02-06 01:42:00",1656483,5.357,166,4.788,0.765,3.949,100.991,1.828,3.093,39.94,0,109.6,13.57,2.59,128.0
"2010-02-06 01:42:30",1656484,6.403,171.6,6.232,1.138,6.03,100.9885,1.821,3.027,39.86,0,109.6,13.57,2.58,133.6
"2010-02-06 01:43:00",1656485,6.901,174.4,4.424,0.766,7.527,100.9777,1.794,3.16,39.92,0,109.6,13.57,2.55,136.4
"2010-02-06 01:43:30",1656486,6.307,171,5.655,1.067,7.055,100.9709,1.777,3.092,39.83,0,109.6,13.57,2.53,133.0
"2010-02-06 01:44:00",1656487,5.784,168.9,6.279,1.206,6.526,100.965,1.761,3.112,39.88,0,109.6,13.57,2.52,130.9
"2010-02-06 01:44:30",1656488,5.647,168.5,5.741,1.095,6.094,100.9639,1.759,2.986,39.72,0,109.6,13.57,2.52,130.5
"2010-02-06 01:45:00",1656489,4.432,161.6,5.333,1.08,3.847,100.9613,1.752,2.839,39.58,0,109.6,13.57,2.51,123.6
"2010-02-06 01:45:30",1656490,4.965,164.2,6.386,1.204,5.461,100.9616,1.753,3.06,39.82,0,109.6,13.57,2.51,126.2
"2010-02-06 01:46:00",1656491,5.165,165.6,6.528,1.226,5.917,100.9622,1.754,2.979,39.73,0,109.6,13.57,2.51,127.6
"2010-02-06 01:46:30",1656492,5.446,169.2,5.621,1.126,7.153,100.9613,1.752,3.097,39.82,0,109.6,13.57,2.51,131.2
"2010-02-06 01:47:00",1656493,5.776,170.3,5.503,1.089,6.698,100.9648,1.761,3.057,39.82,0,109.6,13.57,2.52,132.3
"2010-02-06 01:47:30",1656494,5.459,167.3,6.01,1.207,5.703,100.965,1.762,3.015,39.82,0,109.6,13.57,2.52,129.3